Home   Weather   Leesburg   Past weeks

Flag for USA Past Weather in Leesburg, Virginia, USA — Yesterday and Last 2 Weeks

Now
70 °F

Partly cloudy.


Feels Like: 70 °F
Forecast: 68 / 88 °F
Wind: No wind

Location: Leesburg / Godfrey

Current Time: Aug 21, 2017 at 4:34:20 am

Latest Report: Aug 21, 2017 at 3:35 am


Visibility: 10 mi

Pressure: 30.20 "Hg

Humidity: 100%

Dew Point: 70 °F

Location of LeesburgLocation

Past Weather in Leesburg — Graph

°F

Leesburg Temperature Yesterday

Maximum temperature yesterday: 86 °F (at 3:55 pm)
Minimum temperature yesterday: 66 °F (at 12:55 am)
Average temperature yesterday: 75 °F

High & Low Weather Summary for the Past Weeks

 TemperatureHumidityPressure
High93 °F (Aug 18, 1:55 pm)100% (Aug 6, 4:35 am)30.28 "Hg (Aug 6, 4:35 am)
Low57 °F (Aug 9, 5:15 am)37% (Aug 9, 3:55 pm)29.75 "Hg (Aug 18, 4:55 pm)
Average74 °F84%30.03 "Hg
* Reported Aug 6 2:15 am — Aug 21 2:55 am, Leesburg. Weather by CustomWeather, © 2017

Note: Actual official high and low records may vary slightly from our data, if they occured in-between our weather recording intervals... More about our weather records

Advertising

Leesburg Weather History for the Previous 24 Hours

Scroll right to see more
 ConditionsComfort  
Time TempWeatherWind HumidityBarometerVisibility
2:55 am
Mon, Aug 21
70 °FPassing clouds.No wind100%30.20 "Hg10 mi
2:35 am70 °FPassing clouds.No wind100%30.20 "Hg10 mi
1:55 am70 °FClear.No wind100%30.21 "Hg10 mi
1:35 am70 °FClear.No wind100%30.21 "Hg10 mi
1:15 am70 °FClear.No wind100%30.21 "Hg10 mi
12:55 am72 °FPassing clouds.No wind94%30.21 "Hg10 mi
12:35 am72 °FPassing clouds.No wind94%30.21 "Hg10 mi
12:15 am72 °FPassing clouds.No wind94%30.21 "Hg10 mi
11:55 pm
Sun, Aug 20
72 °FClear.No wind94%30.20 "Hg10 mi
11:35 pm72 °FClear.No wind94%30.20 "Hg10 mi
11:15 pm72 °FClear.No wind94%30.20 "Hg10 mi
10:55 pm75 °FClear.No wind83%30.20 "Hg10 mi
10:35 pm75 °FClear.No wind83%30.20 "Hg10 mi
10:15 pm73 °FClear.No wind89%30.20 "Hg10 mi
9:55 pm73 °FClear.No wind89%30.19 "Hg10 mi
9:35 pm73 °FClear.No wind89%30.18 "Hg10 mi
8:55 pm79 °FClear.3 mph61%30.16 "Hg10 mi
8:15 pm81 °FClear.5 mph62%30.14 "Hg10 mi
7:55 pm81 °FSunny.No wind62%30.14 "Hg10 mi
7:35 pm81 °FSunny.No wind62%30.14 "Hg10 mi
7:15 pm82 °FSunny.No wind58%30.13 "Hg10 mi
6:55 pm82 °FSunny.No wind58%30.13 "Hg10 mi
6:35 pm84 °FSunny.3 mph55%30.12 "Hg10 mi
6:15 pm86 °FSunny.3 mph55%30.12 "Hg10 mi
5:55 pm86 °FSunny.No wind52%30.12 "Hg10 mi
5:35 pm86 °FSunny.3 mph52%30.12 "Hg10 mi
5:15 pm86 °FSunny.No wind52%30.12 "Hg10 mi
4:55 pm86 °FSunny.3 mph55%30.13 "Hg10 mi
4:35 pm84 °FSunny.5 mph55%30.13 "Hg10 mi
4:15 pm84 °FSunny.6 mph55%30.13 "Hg10 mi
3:55 pm86 °FSunny.No wind49%30.13 "Hg10 mi
3:35 pm84 °FSunny.No wind51%30.14 "Hg10 mi
2:55 pm84 °FSunny.No wind51%30.14 "Hg10 mi
2:35 pm82 °FSunny.3 mph51%30.15 "Hg10 mi
1:55 pm82 °FSunny.No wind51%30.16 "Hg10 mi
1:35 pm82 °FSunny.No wind51%30.16 "Hg10 mi
1:15 pm82 °FSunny.3 mph55%30.17 "Hg10 mi
12:55 pm82 °FSunny.3 mph55%30.16 "Hg10 mi
12:35 pm81 °FSunny.No wind54%30.16 "Hg10 mi
12:15 pm81 °FSunny.No wind54%30.17 "Hg10 mi
11:55 am79 °FSunny.No wind58%30.16 "Hg10 mi
11:15 am79 °FSunny.3 mph58%30.17 "Hg10 mi
10:55 am79 °FSunny.6 mph58%30.16 "Hg10 mi
10:35 am77 °FSunny.7 mph65%30.16 "Hg10 mi
10:15 am77 °FSunny.6 mph65%30.15 "Hg10 mi
9:55 am75 °FSunny.6 mph69%30.15 "Hg10 mi
9:35 am73 °FSunny.7 mph74%30.15 "Hg10 mi
8:55 am73 °FSunny.6 mph74%30.13 "Hg10 mi
8:35 am72 °FSunny.8 mph78%30.13 "Hg10 mi
8:15 am72 °FSunny.5 mph78%30.13 "Hg10 mi
7:55 am70 °FSunny.5 mph83%30.12 "Hg10 mi
7:35 am68 °FSunny.3 mph88%30.12 "Hg10 mi
6:55 am66 °FSunny.No wind94%30.11 "Hg10 mi
6:35 am66 °FSunny.3 mph94%30.10 "Hg10 mi
6:15 am68 °FClear.3 mph88%30.08 "Hg10 mi
5:55 am66 °FClear.3 mph94%30.08 "Hg10 mi
5:35 am66 °FClear.6 mph94%30.08 "Hg10 mi
5:15 am68 °FClear.6 mph88%30.07 "Hg10 mi
5:00 am68 °FClear.6 mph88%30.07 "Hg10 mi
4:35 am68 °FClear.5 mph88%30.06 "Hg10 mi
4:15 am70 °FClear.3 mph83%30.05 "Hg10 mi
Weather by CustomWeather, © 2017

See weather overviewHow to use our weather pages